Hourly Data Report for April 15, 2020

CLYDE RIVER A
NUNAVUT
Current Station Operator: NAVCAN

70°29'09.000" N
68°31'01.000" W
26.50 m
2400804
71090
YCY

Download Data

Hourly Data (April 2020)
Hourly Data Report for April 15, 2020
TIME
LST
Temp Definition
°C
Dew Point Definition
°C
Rel Hum Definition
%
Precip. Amount Definition
mm

Wind Dir Definition
10's deg

Wind Spd Definition
km/h
Visibility Definition
km
Stn Press Definition
kPa
Hmdx Definition


Wind Chill Definition


Weather Definition


00:00 -20.4 -21.9 88 0.0 29 4 16.1 100.38   -24 LegendNANA
01:00 -21.6 -23.4 86 0.0 30 8 16.1 100.36   -28 LegendNANA
02:00 -21.1 -22.7 87 0.0 26 4 16.1 100.35   -25 LegendNANA
03:00 -21.2 -22.8 87 0.0 LegendMM 4 16.1 100.35   -25 LegendNANA
04:00 -22.3 -24.3 84 0.0 27 4 16.1 100.31   -26 LegendNANA
05:00 -22.9 -24.8 85 0.0 31 5 16.1 100.27   -28 LegendNANA
06:00 -19.5 -20.6 91 0.0 28 9 16.1 100.23   -26 LegendNANA
07:00 -17.1 -18.4 90 0.0 27 8 16.1 100.18   -23 LegendNANA
08:00 -16.9 -18.3 89 0.0 31 4 16.1 100.12   -20 LegendNANA
09:00 -16.7 -18.0 90 0.0 LegendMM 4 16.1 100.07   -20 LegendNANA
10:00 -17.3 -18.8 88 0.0 34 13 2.8 100.03   -25 Snow
11:00 -15.9 -17.3 89 0.0 34 21 2.0 99.93   -26 Snow
12:00 -15.9 -17.5 88 0.0 34 22 4.8 99.87   -26 Snow
13:00 -15.1 -17.1 85 0.0 33 26 16.1 99.82   -25 Snow
14:00 -13.7 -15.7 85 0.0 31 26 16.1 99.79   -24 Snow
15:00 -13.2 -15.2 85 0.0 32 26 16.1 99.72   -23 Snow
16:00 -13.3 -15.3 85 0.0 32 30 14.5 99.65   -24 Snow
17:00 -14.0 -15.9 86 0.0 32 32 16.1 99.58   -25 Snow
18:00 -14.8 -16.5 87 0.0 32 32 4.8 99.56   -26 Snow
19:00 -16.1 -17.7 88 0.0 32 32 16.1 99.52   -28 Snow
20:00 -16.2 -17.7 88 0.0 32 32 6.4 99.50   -28 Snow
21:00 -15.6 -17.0 89 0.0 31 32 4.8 99.46   -27 Snow
22:00 -15.1 -16.7 88 0.0 31 37 8.1 99.35   -27 Fog
23:00 -15.2 -16.6 89 0.0 32 37 4.8 99.26   -27 Snow

Notes on Data Quality.

Legend

  • E = Estimated
  • M = Missing
  • NA = Not Available*
  • [empty] = Indicates an unobserved value
Date modified: